Regional Weather Roundup
Issued by NWS

Home | Current Version | Previous Version | Text Only | Print | Product List | Glossary On
Versions: 1 2 3 4 5 6 7 8 9 10 11 12 13 14 15 16 17 18 19 20 21 22 23 24 25 26 27 28 29 30 31 32 33 34 35 36 37 38 39 40 41 42 43 44 45 46 47 48 49 50
954
ASUS44 KJAN 072303
RWRMS

MISSISSIPPI HOURLY WEATHER ROUNDUP
NATIONAL WEATHER SERVICE JACKSON MS
500 PM CST SUN FEB 07 2016

NOTE: "FAIR: INDICATES FEW OR NO CLOUDS BELOW 12,000 FEET WITH NO
SIGNIFICANT WEATHER AND/OR OBSTRUCTIONS TO VISIBILITY.

MSZ001>002-007>008-010>013-018>021-025>028-034>036-080000-
NORTHWEST MISSISSIPPI

CITY           SKY/WX    TMP DP  RH WIND       PRES   REMARKS
CLEVELAND      FAIR      56  38  49 SW10      30.05F
GREENWOOD      CLEAR     55  30  38 SW8       30.08F
GREENVILLE     PTCLDY    57  32  38 SW13      30.06F
OXFORD         FAIR      54  28  37 SW10G17   30.05F
TUNICA         PTCLDY    54  32  43 SW10      30.04S
$$

MSZ003>006-009-014>017-022>024-029>033-037>039-080000-
NORTHEAST MISSISSIPPI

CITY           SKY/WX    TMP DP  RH WIND       PRES   REMARKS
COLUMBUS AFB   CLEAR     57  24  28 W8        30.04F
CORINTH        FAIR      55  21  26 W9G16     30.01S
GOLDN TRIANGLE CLEAR     57  21  24 W6        30.05F
STARKVILLE     FAIR      55  25  30 W6        30.07S
TUPELO         PTCLDY    56  22  26 S9        30.04F
$$

MSZ040-058-080000-
CENTRAL MISSISSIPPI

CITY           SKY/WX    TMP DP  RH WIND       PRES   REMARKS
JACKSON INTL   PTCLDY    59  26  28 W8        30.10F
JACKSON HAWKNS CLEAR     58  24  27 W12       30.10F
MERIDIAN KEY   CLEAR     57  21  24 W6        30.09S
MERIDIAN NAS   PTCLDY    57  19  22 W9        30.08F
VICKSBURG      CLEAR     59  29  31 VRB6      30.11F
$$

MSZ059>079-080000-
SOUTH MISSISSIPPI

CITY           SKY/WX    TMP DP  RH WIND       PRES   REMARKS
BROOKHAVEN     FAIR      57  30  35 SW8       30.13R
HATTIESBURG    CLEAR     59  23  25 W8        30.12R
MCCOMB         CLEAR     59  26  28 W7        30.12R
NATCHEZ        CLEAR     57  30  35 SW6       30.14S
PINE BELT      CLEAR     57  23  26 CALM      30.12S
$$

MSZ080>082-080000-
COASTAL MISSISSIPPI

CITY           SKY/WX    TMP DP  RH WIND       PRES   REMARKS
BAY ST LOUIS   CLEAR     55  19  24 SW12      30.14R
BILOXI         CLEAR     54  35  48 W14       30.13R
PASCAGOULA     CLEAR     54  33  45 VRB6      30.13R
GULFPORT       CLEAR     55  31  39 SW7       30.14R
$$




USA.gov is the U.S. government's official web portal to all federal, state and local government web resources and services.